Regional Weather Roundup
Issued by NWS

Home | Current Version | Previous Version | Text Only | Print | Product List | Glossary Off
Versions: 1 2 3 4 5 6 7 8 9 10 11 12 13 14 15 16 17 18 19 20 21 22 23 24 25 26 27 28 29 30 31 32 33 34 35 36 37 38 39 40 41 42 43 44 45 46 47 48 49 50

000
ASUS45 KPSR 031500
RWRAZ

ARIZONA HOURLY REGIONAL WEATHER ROUNDUP
NATIONAL WEATHER SERVICE PHOENIX AZ
800 AM MST MON AUG 03 2015

NOTE: FAIR INDICATES FEW OR NO CLOUDS BELOW 12,000 FEET WITH NO
SIGNIFICANT WEATHER AND/OR OBSTRUCTIONS TO VISIBILITY.

AZZ001>003-036-031600-
NORTHWEST ARIZONA

CITY           SKY/WX    TMP DP  RH WIND       PRES   REMARKS
KINGMAN        SUNNY     88  44  21 SE8       30.00S
$$

AZZ004>008-015-016-018-031600-
NORTH CENTRAL ARIZONA

CITY           SKY/WX    TMP DP  RH WIND       PRES   REMARKS
GRAND CANYON   SUNNY     70  52  52 CALM      30.26R
WILLIAMS       SUNNY     70  50  49 VRB7      30.33R
PRESCOTT       SUNNY     74  51  44 CALM      30.15R
FLAGSTAFF      NOT AVBL
PAYSON         PTSUNNY   73  55  53 CALM      30.17R
PAGE           SUNNY     72  61  68 CALM      30.09S
$$

AZZ009>014-017-031600-
NORTHEAST ARIZONA

CITY           SKY/WX    TMP DP  RH WIND       PRES   REMARKS
WINSLOW        NOT AVBL
SAINT JOHNS    SUNNY     67  52  58 CALM      30.20R
SHOW LOW       MOSUNNY   72  46  40 S5        30.26R
$$

AZZ023-031600-
GREATER PHOENIX AREA

CITY           SKY/WX    TMP DP  RH WIND       PRES   REMARKS
PHOENIX        MOSUNNY   92  55  28 E6        29.84R
BUCKEYE        SUNNY     91  46  21 SW3       29.86R
GLENDALE       MOSUNNY   91  57  31 SE6       29.86R
DEER VALLEY    SUNNY     89  53  29 S5        29.87R
SCOTTSDALE     SUNNY     88  59  37 CALM      29.89R
MESA-FALCON    MOSUNNY   90  55  31 N7        29.87
MESA-GATEWAY   MOSUNNY   88  55  33 SE7       29.88R
CHANDLER       MOSUNNY   90  57  33 SE3       29.86R
$$

AZZ027-028-031600-
SOUTHWEST MARICOPA COUNTY AND PINAL COUNTY

CITY           SKY/WX    TMP DP  RH WIND       PRES   REMARKS
CASA GRANDE    SUNNY     90  54  29 CALM      29.87R
GILA BEND      SUNNY     96  43  16 S3        29.83R
$$

AZZ503-504-507>509-031600-
SOUTHEAST ARIZONA

CITY           SKY/WX    TMP DP  RH WIND       PRES   REMARKS
TUCSON         SUNNY     84  60  44 W3        29.99R
DAVIS-MONTHAN  SUNNY     84  61  45 S7        29.98R
NOGALES        SUNNY     76  63  64 CALM      30.09R
SIERRA VISTA   SUNNY     77  60  54 VRB2      30.14R HAZE
SAFFORD        SUNNY     82  56  40 SE6       30.01R
$$

AZZ020-021-025-026-031-031600-
SOUTHWEST ARIZONA

CITY           SKY/WX    TMP DP  RH WIND       PRES   REMARKS
YUMA           MOSUNNY   90  69  50 S15       29.78R
$$

CAZ031-033-041-043-047-048-061-031600-
SOUTHERN CALIFORNIA

CITY           SKY/WX    TMP DP  RH WIND       PRES   REMARKS
DOWNTOWN L.A.  MOSUNNY   71  64  78 E3        29.89S
L.A. AIRPORT   MOSUNNY   70  64  81 CALM      29.90R
SAN DIEGO      CLOUDY    70  61  73 NE3       29.91S
BURBANK        SUNNY     69  61  75 CALM      29.91R
ONTARIO        MOSUNNY   69  61  75 CALM      29.92R
RIVERSIDE      SUNNY     68  62  81 CALM      29.92S
PALM SPRINGS   SUNNY     85  61  44 S5        29.78R
EL CENTRO NAS  MOSUNNY   88  57  34 SE7       29.76R
IMPERIAL       SUNNY     90  60  36 S5        29.74R
BLYTHE         SUNNY     90  49  24 CALM      29.77R
$$

NVZ020-UTZ003-031600-
SOUTHERN NEVADA-UTAH

CITY           SKY/WX    TMP DP  RH WIND       PRES   REMARKS
LAS VEGAS      NOT AVBL
SALT LAKE CITY LGT RAIN  63  60  90 N8        30.08R
$$

NMZ009-TXZ055-031600-
NEW MEXICO-WEST TEXAS

CITY           SKY/WX    TMP DP  RH WIND       PRES   REMARKS
ALBUQUERQUE    MOSUNNY   69  59  70 CALM      30.19R
EL PASO        PTSUNNY   76  63  64 CALM      30.07R
$$


........................KEY........................
SKY/WX - SKY CONDITION/WEATHER
TMP    - TEMPERATURE IN FAHRENHEIT
DP     - DEW POINT IN FAHRENHEIT
RH     - RELATIVE HUMIDITY IN PERCENT
WIND   - DIRECTION AND SPEED IN MILES PER HOUR (MPH)
VRB    - VARIABLE WIND DIRECTION
PRES   - MEAN SEA LEVEL PRESSURE IN INCHES OF MERCURY
         F - FALLING PRESSURE   R - RISING PRESSURE
         S - STEADY PRESSURE
VSB    - VISIBILITY IN MILES
HX     - HEAT INDEX IN FAHRENHEIT
WCI    - WIND CHILL INDEX IN FAHRENHEIT
TC     - TEMPERATURE IN CELSIUS WHICH IS ALSO KNOWN AS
         TEMPERATURE IN CENTIGRADE
AFB    - AIR FORCE BASE
         LUKE AFB IS LUKE AIR FORCE BASE
         DAVIS-MONTHAN IS DAVIS-MONTHAN AIR FORCE BASE
NAS    - NAVAL AIR STATION
         EL CENTRO NAS IS EL CENTRO NAVAL AIR STATION
N/A    - NOT AVAILABLE




USA.gov is the U.S. government's official web portal to all federal, state and local government web resources and services.